QPF
0.00 0.00 0.00 0.00 0.00 0.00 0.00 0.00 0.00 0.01 0.02 0.03 0.03 0.03 0.04 0.05 0.05 0.05 0.06 0.05 0.03 0.03 0.02 0.02 0.02 0.03 0.04 0.05 0.04 0.04 0.05 0.06 0.06 0.07 0.08 0.08 0.10 0.12 0.14 0.21 0.25 0.27 0.32 0.35
0.00 0.00 0.00 0.00 0.00 0.00 0.00 0.00 0.00 0.01 0.01 0.01 0.01 0.01 0.02 0.03 0.04 0.03 0.03 0.03 0.01 0.01 0.01 0.00 0.00 0.00 0.01 0.01 0.01 0.02 0.02 0.03 0.05 0.05 0.06 0.06 0.08 0.09 0.10 0.10 0.11 0.12 0.15 0.20
0.00 0.00 0.00 0.00 0.00 0.00 0.00 0.00 0.00 0.00 0.00 0.00 0.00 0.01 0.01 0.01 0.02 0.02 0.02 0.01 0.01 0.00 0.00 0.00 0.00 0.00 0.00 0.00 0.00 0.00 0.01 0.01 0.01 0.03 0.04 0.03 0.03 0.04 0.03 0.03 0.04 0.04 0.04 0.06
0.00 0.00 0.00 0.00 0.00 0.00 0.00 0.00 0.00 0.00 0.00 0.00 0.01 0.00 0.00 0.00 0.00 0.01 0.01 0.00 0.00 0.00 0.00 0.00 0.00 0.00 0.00 0.00 0.00 0.00 0.00 0.00 0.00 0.00 0.00 0.00 0.01 0.01 0.01 0.01 0.01 0.01 0.01 0.02
0.00 0.00 0.00 0.00 0.00 0.00 0.00 0.00 0.00 0.00 0.00 0.00 0.00 0.00 0.00 0.00 0.00 0.00 0.00 0.00 0.00 0.00 0.00 0.00 0.00 0.00 0.00 0.00 0.00 0.00 0.00 0.00 0.00 0.00 0.00 0.00 0.00 0.00 0.00 0.00 0.00 0.00 0.00 0.00
0.00 0.00 0.00 0.00 0.00 0.00 0.00 0.00 0.00 0.00 0.00 0.00 0.00 0.00 0.00 0.00 0.00 0.00 0.00 0.00 0.00 0.00 0.00 0.00 0.00 0.00 0.00 0.00 0.00 0.00 0.00 0.00 0.00 0.00 0.00 0.00 0.00 0.00 0.00 0.00 0.00 0.00 0.00 0.00
0.00 0.00 0.00 0.00 0.00 0.00 0.00 0.00 0.00 0.00 0.00 0.00 0.00 0.00 0.00 0.00 0.00 0.00 0.00 0.00 0.00 0.00 0.00 0.00 0.00 0.00 0.00 0.00 0.00 0.00 0.00 0.00 0.00 0.00 0.00 0.00 0.00 0.00 0.00 0.00 0.00 0.00 0.00 0.00
0.00 0.00 0.00 0.00 0.00 0.00 0.00 0.00 0.00 0.00 0.00 0.00 0.00 0.00 0.00 0.00 0.00 0.00 0.00 0.00 0.00 0.00 0.00 0.00 0.00 0.00 0.00 0.00 0.00 0.00 0.00 0.00 0.00 0.00 0.00 0.00 0.00 0.00 0.00 0.00 0.00 0.00 0.00 0.00
0.00 0.00 0.00 0.00 0.00 0.00 0.00 0.00 0.00 0.00 0.00 0.00 0.00 0.00 0.00 0.00 0.00 0.00 0.00 0.00 0.00 0.00 0.00 0.00 0.00 0.00 0.00 0.00 0.00 0.00 0.00 0.00 0.00 0.00 0.00 0.00 0.00 0.00 0.00 0.00 0.00 0.00 0.00 0.00
0.00 0.00 0.00 0.00 0.00 0.00 0.00 0.00 0.00 0.00 0.00 0.00 0.00 0.00 0.00 0.00 0.00 0.00 0.00 0.00 0.00 0.00 0.00 0.00 0.00 0.00 0.00 0.00 0.00 0.00 0.00 0.00 0.00 0.00 0.00 0.00 0.00 0.00 0.00 0.00 0.00 0.00 0.00 0.00
0.00 0.00 0.00 0.00 0.00 0.00 0.00 0.00 0.00 0.00 0.00 0.00 0.00 0.00 0.00 0.00 0.00 0.00 0.00 0.00 0.00 0.00 0.00 0.00 0.00 0.00 0.00 0.00 0.00 0.00 0.00 0.00 0.00 0.00 0.00 0.00 0.00 0.00 0.00 0.00 0.00 0.00 0.00 0.00
0.00 0.00 0.00 0.00 0.00 0.00 0.00 0.00 0.00 0.00 0.00 0.00 0.00 0.00 0.00 0.00 0.00 0.00 0.00 0.00 0.00 0.00 0.00 0.00 0.00 0.00 0.00 0.00 0.00 0.00 0.00 0.00 0.00 0.00 0.00 0.00 0.00 0.00 0.00 0.00 0.00 0.00 0.00 0.00
0.00 0.00 0.00 0.00 0.00 0.00 0.00 0.00 0.00 0.00 0.00 0.00 0.00 0.00 0.00 0.00 0.00 0.00 0.00 0.00 0.00 0.00 0.00 0.00 0.00 0.00 0.00 0.00 0.00 0.00 0.00 0.00 0.00 0.00 0.00 0.00 0.00 0.00 0.00 0.00 0.00 0.00 0.00 0.00
0.00 0.00 0.00 0.00 0.00 0.00 0.00 0.00 0.00 0.00 0.00 0.00 0.00 0.00 0.00 0.00 0.00 0.00 0.00 0.00 0.00 0.00 0.00 0.00 0.00 0.00 0.00 0.00 0.00 0.00 0.00 0.00 0.00 0.00 0.00 0.00 0.00 0.00 0.00 0.00 0.00 0.00 0.00 0.00
0.00 0.00 0.00 0.00 0.00 0.00 0.00 0.00 0.00 0.00 0.00 0.00 0.00 0.00 0.00 0.00 0.00 0.00 0.00 0.00 0.00 0.00 0.00 0.00 0.00 0.00 0.00 0.00 0.00 0.00 0.00 0.00 0.00 0.00 0.00 0.00 0.00 0.00 0.00 0.00 0.00 0.00 0.00 0.00
0.00 0.00 0.00 0.00 0.00 0.00 0.00 0.00 0.00 0.00 0.00 0.00 0.00 0.00 0.00 0.00 0.00 0.00 0.00 0.00 0.00 0.00 0.00 0.00 0.00 0.00 0.00 0.00 0.00 0.00 0.00 0.00 0.00 0.00 0.00 0.00 0.00 0.00 0.00 0.00 0.00 0.00 0.00 0.00
0.00 0.00 0.00 0.00 0.00 0.00 0.00 0.00 0.00 0.00 0.00 0.00 0.00 0.00 0.00 0.00 0.00 0.00 0.00 0.00 0.00 0.00 0.00 0.00 0.00 0.00 0.00 0.00 0.00 0.00 0.00 0.00 0.00 0.00 0.00 0.00 0.00 0.00 0.00 0.00 0.00 0.00 0.00 0.00
0.00 0.00 0.00 0.00 0.00 0.00 0.00 0.00 0.00 0.00 0.00 0.00 0.00 0.00 0.00 0.00 0.00 0.00 0.00 0.00 0.00 0.00 0.00 0.00 0.00 0.00 0.00 0.00 0.00 0.00 0.00 0.00 0.00 0.00 0.00 0.00 0.00 0.00 0.00 0.00 0.00 0.00 0.00 0.00
0.00 0.00 0.00 0.00 0.00 0.00 0.00 0.00 0.00 0.00 0.00 0.00 0.00 0.00 0.00 0.00 0.00 0.00 0.00 0.00 0.00 0.00 0.00 0.00 0.00 0.00 0.00 0.00 0.00 0.00 0.00 0.00 0.00 0.00 0.00 0.00 0.00 0.00 0.00 0.00 0.00 0.00 0.00 0.00
0.00 0.00 0.00 0.00 0.00 0.00 0.00 0.00 0.00 0.00 0.00 0.00 0.00 0.00 0.00 0.00 0.00 0.00 0.00 0.00 0.00 0.00 0.00 0.00 0.00 0.00 0.00 0.00 0.00 0.00 0.00 0.00 0.00 0.00 0.00 0.00 0.00 0.00 0.00 0.00 0.00 0.00 0.00 0.00
0.00 0.00 0.00 0.00 0.00 0.00 0.00 0.00 0.00 0.00 0.00 0.00 0.00 0.00 0.00 0.00 0.00 0.00 0.00 0.00 0.00 0.00 0.00 0.00 0.00 0.00 0.00 0.00 0.00 0.00 0.00 0.00 0.00 0.00 0.00 0.00 0.00 0.00 0.00 0.00 0.00 0.00 0.00 0.00
0.00 0.00 0.00 0.00 0.00 0.00 0.00 0.00 0.00 0.00 0.00 0.00 0.00 0.00 0.00 0.00 0.00 0.00 0.00 0.00 0.00 0.00 0.00 0.00 0.00 0.00 0.00 0.00 0.00 0.00 0.00 0.00 0.00 0.00 0.00 0.00 0.00 0.00 0.00 0.00 0.00 0.00 0.00 0.00
0.00 0.00 0.00 0.00 0.00 0.00 0.00 0.00 0.00 0.00 0.00 0.00 0.00 0.00 0.00 0.00 0.00 0.00 0.00 0.00 0.00 0.00 0.00 0.00 0.00 0.00 0.00 0.00 0.00 0.00 0.00 0.00 0.00 0.00 0.00 0.00 0.00 0.00 0.00 0.00 0.00 0.00 0.00 0.00
0.00 0.00 0.00 0.00 0.00 0.00 0.00 0.00 0.00 0.00 0.00 0.00 0.00 0.00 0.00 0.00 0.00 0.00 0.00 0.00 0.00 0.00 0.00 0.00 0.00 0.00 0.00 0.00 0.00 0.00 0.00 0.00 0.00 0.00 0.00 0.00 0.00 0.00 0.00 0.00 0.00 0.00 0.00 0.00
0.00 0.00 0.00 0.00 0.00 0.00 0.00 0.00 0.00 0.00 0.00 0.00 0.00 0.00 0.00 0.00 0.00 0.00 0.00 0.00 0.00 0.00 0.00 0.00 0.00 0.00 0.00 0.00 0.00 0.00 0.00 0.00 0.00 0.00 0.00 0.00 0.00 0.00 0.00 0.00 0.00 0.00 0.00 0.00
0.00 0.00 0.00 0.00 0.00 0.00 0.00 0.00 0.00 0.00 0.00 0.00 0.00 0.00 0.00 0.00 0.00 0.00 0.00 0.00 0.00 0.00 0.00 0.00 0.00 0.00 0.00 0.00 0.00 0.00 0.00 0.00 0.00 0.00 0.00 0.00 0.00 0.00 0.00 0.00 0.00 0.00 0.00 0.00
0.00 0.00 0.00 0.00 0.00 0.00 0.00 0.00 0.00 0.00 0.00 0.00 0.00 0.00 0.00 0.00 0.00 0.00 0.00 0.00 0.00 0.00 0.00 0.00 0.00 0.00 0.00 0.00 0.00 0.00 0.00 0.00 0.00 0.00 0.00 0.00 0.00 0.00 0.00 0.00 0.00 0.00 0.00 0.00
MSLP
1024.22 1024.65 1025.08 1025.50 1025.90 1026.24 1026.50 1026.66 1026.69 1026.58 1026.31 1025.89 1025.33 1024.68 1023.96 1023.20 1022.45 1021.72 1021.04 1020.43 1019.88 1019.38 1018.93 1018.51 1018.11 1017.73 1017.35 1016.98 1016.63 1016.29 1015.98 1015.70 1015.46 1015.25 1015.07 1014.92 1014.79 1014.68 1014.58 1014.49 1014.42 1014.37 1014.32 1014.29
1024.42 1024.84 1025.22 1025.57 1025.87 1026.10 1026.26 1026.32 1026.26 1026.09 1025.79 1025.37 1024.85 1024.25 1023.59 1022.90 1022.22 1021.56 1020.94 1020.38 1019.88 1019.44 1019.04 1018.69 1018.37 1018.06 1017.76 1017.46 1017.16 1016.87 1016.59 1016.33 1016.09 1015.87 1015.68 1015.52 1015.37 1015.25 1015.14 1015.05 1014.96 1014.87 1014.79 1014.71
1024.65 1025.00 1025.30 1025.55 1025.74 1025.87 1025.92 1025.89 1025.78 1025.57 1025.27 1024.89 1024.42 1023.88 1023.29 1022.68 1022.06 1021.45 1020.88 1020.36 1019.90 1019.50 1019.15 1018.86 1018.60 1018.37 1018.14 1017.91 1017.68 1017.44 1017.20 1016.96 1016.73 1016.52 1016.32 1016.15 1016.01 1015.88 1015.77 1015.67 1015.56 1015.46 1015.34 1015.22
1024.84 1025.09 1025.28 1025.41 1025.49 1025.51 1025.47 1025.38 1025.23 1025.02 1024.75 1024.41 1024.01 1023.56 1023.05 1022.51 1021.95 1021.40 1020.86 1020.37 1019.93 1019.56 1019.25 1019.00 1018.79 1018.62 1018.47 1018.31 1018.15 1017.97 1017.77 1017.57 1017.36 1017.16 1016.97 1016.81 1016.67 1016.55 1016.44 1016.33 1016.22 1016.10 1015.95 1015.78
1024.91 1025.04 1025.11 1025.12 1025.08 1025.00 1024.90 1024.76 1024.60 1024.41 1024.19 1023.92 1023.61 1023.24 1022.83 1022.36 1021.87 1021.36 1020.85 1020.38 1019.96 1019.60 1019.31 1019.09 1018.93 1018.81 1018.72 1018.62 1018.53 1018.41 1018.27 1018.11 1017.94 1017.78 1017.62 1017.47 1017.35 1017.23 1017.13 1017.02 1016.90 1016.75 1016.57 1016.36
1024.79 1024.79 1024.73 1024.63 1024.50 1024.35 1024.19 1024.04 1023.89 1023.74 1023.58 1023.40 1023.18 1022.91 1022.58 1022.20 1021.77 1021.31 1020.84 1020.38 1019.97 1019.62 1019.35 1019.14 1019.01 1018.92 1018.88 1018.84 1018.80 1018.75 1018.67 1018.57 1018.46 1018.34 1018.22 1018.11 1018.01 1017.91 1017.81 1017.69 1017.56 1017.39 1017.18 1016.93
1024.41 1024.30 1024.15 1023.96 1023.76 1023.56 1023.39 1023.24 1023.12 1023.02 1022.94 1022.84 1022.72 1022.55 1022.31 1022.01 1021.65 1021.24 1020.80 1020.37 1019.97 1019.63 1019.36 1019.16 1019.04 1018.98 1018.96 1018.97 1018.99 1018.99 1018.98 1018.95 1018.90 1018.84 1018.77 1018.69 1018.62 1018.54 1018.45 1018.33 1018.18 1017.99 1017.74 1017.45
1023.76 1023.57 1023.35 1023.12 1022.89 1022.68 1022.52 1022.40 1022.33 1022.30 1022.30 1022.29 1022.25 1022.17 1022.03 1021.80 1021.51 1021.16 1020.77 1020.36 1019.98 1019.64 1019.37 1019.17 1019.05 1019.00 1019.01 1019.04 1019.10 1019.16 1019.20 1019.24 1019.25 1019.25 1019.24 1019.22 1019.18 1019.13 1019.04 1018.92 1018.75 1018.53 1018.26 1017.94
1022.87 1022.65 1022.41 1022.17 1021.96 1021.79 1021.67 1021.60 1021.60 1021.64 1021.71 1021.78 1021.83 1021.83 1021.76 1021.62 1021.39 1021.10 1020.75 1020.39 1020.03 1019.70 1019.43 1019.22 1019.10 1019.04 1019.04 1019.09 1019.17 1019.27 1019.36 1019.45 1019.53 1019.60 1019.65 1019.67 1019.68 1019.65 1019.57 1019.45 1019.27 1019.03 1018.73 1018.39
1021.82 1021.60 1021.40 1021.21 1021.05 1020.95 1020.90 1020.91 1020.98 1021.09 1021.23 1021.37 1021.48 1021.55 1021.55 1021.47 1021.31 1021.08 1020.79 1020.46 1020.13 1019.82 1019.55 1019.34 1019.20 1019.12 1019.11 1019.15 1019.24 1019.35 1019.48 1019.62 1019.75 1019.87 1019.98 1020.05 1020.10 1020.09 1020.03 1019.91 1019.73 1019.48 1019.17 1018.82
1020.71 1020.53 1020.39 1020.28 1020.23 1020.22 1020.27 1020.37 1020.52 1020.70 1020.89 1021.08 1021.24 1021.36 1021.41 1021.39 1021.29 1021.11 1020.88 1020.60 1020.31 1020.02 1019.76 1019.54 1019.37 1019.27 1019.23 1019.25 1019.32 1019.43 1019.58 1019.74 1019.91 1020.08 1020.23 1020.36 1020.44 1020.46 1020.43 1020.32 1020.14 1019.90 1019.60 1019.26
1019.61 1019.51 1019.46 1019.46 1019.53 1019.64 1019.80 1020.00 1020.22 1020.46 1020.69 1020.92 1021.11 1021.25 1021.33 1021.35 1021.30 1021.18 1021.01 1020.78 1020.53 1020.27 1020.02 1019.80 1019.61 1019.48 1019.40 1019.39 1019.43 1019.52 1019.66 1019.83 1020.02 1020.22 1020.41 1020.57 1020.69 1020.75 1020.75 1020.66 1020.51 1020.29 1020.01 1019.70
1018.58 1018.57 1018.63 1018.76 1018.96 1019.20 1019.47 1019.75 1020.04 1020.33 1020.59 1020.83 1021.03 1021.18 1021.28 1021.33 1021.32 1021.25 1021.12 1020.96 1020.75 1020.53 1020.30 1020.07 1019.87 1019.71 1019.59 1019.53 1019.53 1019.59 1019.71 1019.87 1020.07 1020.28 1020.50 1020.70 1020.85 1020.95 1020.98 1020.94 1020.82 1020.64 1020.41 1020.16
1017.65 1017.72 1017.89 1018.16 1018.48 1018.84 1019.22 1019.59 1019.93 1020.25 1020.53 1020.76 1020.95 1021.10 1021.21 1021.27 1021.29 1021.26 1021.19 1021.07 1020.92 1020.73 1020.53 1020.32 1020.11 1019.92 1019.77 1019.66 1019.61 1019.63 1019.71 1019.86 1020.05 1020.27 1020.50 1020.72 1020.92 1021.05 1021.13 1021.13 1021.07 1020.94 1020.77 1020.58
1016.80 1016.96 1017.24 1017.62 1018.06 1018.53 1019.00 1019.43 1019.82 1020.15 1020.43 1020.65 1020.83 1020.96 1021.06 1021.13 1021.17 1021.18 1021.15 1021.09 1020.99 1020.85 1020.67 1020.48 1020.27 1020.06 1019.88 1019.74 1019.65 1019.62 1019.67 1019.78 1019.95 1020.17 1020.41 1020.65 1020.87 1021.05 1021.17 1021.23 1021.22 1021.16 1021.07 1020.95
1016.01 1016.25 1016.64 1017.12 1017.66 1018.21 1018.75 1019.23 1019.65 1019.99 1020.26 1020.46 1020.61 1020.73 1020.82 1020.89 1020.95 1020.99 1021.00 1020.99 1020.94 1020.84 1020.71 1020.54 1020.34 1020.13 1019.92 1019.75 1019.62 1019.56 1019.56 1019.64 1019.79 1019.99 1020.23 1020.48 1020.73 1020.94 1021.11 1021.22 1021.28 1021.28 1021.26 1021.22
1015.29 1015.61 1016.07 1016.63 1017.24 1017.86 1018.44 1018.95 1019.38 1019.73 1019.99 1020.17 1020.31 1020.41 1020.49 1020.57 1020.64 1020.71 1020.76 1020.79 1020.79 1020.74 1020.65 1020.50 1020.32 1020.11 1019.90 1019.70 1019.54 1019.44 1019.41 1019.46 1019.58 1019.76 1019.99 1020.24 1020.50 1020.74 1020.94 1021.10 1021.22 1021.29 1021.34 1021.37
1014.66 1015.03 1015.55 1016.16 1016.81 1017.46 1018.06 1018.59 1019.02 1019.36 1019.61 1019.79 1019.92 1020.01 1020.09 1020.18 1020.28 1020.37 1020.46 1020.54 1020.58 1020.57 1020.51 1020.40 1020.24 1020.04 1019.83 1019.62 1019.44 1019.31 1019.24 1019.26 1019.34 1019.50 1019.71 1019.95 1020.21 1020.46 1020.69 1020.89 1021.05 1021.18 1021.28 1021.37
1014.15 1014.56 1015.09 1015.72 1016.38 1017.03 1017.63 1018.15 1018.58 1018.91 1019.16 1019.33 1019.46 1019.57 1019.67 1019.78 1019.90 1020.03 1020.15 1020.27 1020.35 1020.38 1020.36 1020.27 1020.13 1019.95 1019.74 1019.53 1019.33 1019.18 1019.09 1019.06 1019.11 1019.23 1019.41 1019.64 1019.88 1020.13 1020.37 1020.59 1020.78 1020.95 1021.09 1021.23
1013.82 1014.23 1014.75 1015.35 1015.97 1016.59 1017.16 1017.66 1018.07 1018.39 1018.64 1018.83 1018.98 1019.11 1019.24 1019.37 1019.53 1019.69 1019.86 1020.01 1020.12 1020.19 1020.20 1020.14 1020.03 1019.86 1019.66 1019.44 1019.24 1019.06 1018.94 1018.89 1018.90 1018.98 1019.12 1019.31 1019.53 1019.76 1019.99 1020.22 1020.42 1020.61 1020.79 1020.95
1013.71 1014.07 1014.54 1015.07 1015.63 1016.18 1016.69 1017.14 1017.52 1017.83 1018.09 1018.29 1018.47 1018.63 1018.80 1018.98 1019.17 1019.38 1019.58 1019.76 1019.91 1020.00 1020.04 1020.01 1019.91 1019.76 1019.57 1019.36 1019.15 1018.96 1018.82 1018.73 1018.70 1018.73 1018.83 1018.97 1019.15 1019.35 1019.57 1019.78 1019.99 1020.19 1020.38 1020.56
1013.83 1014.11 1014.48 1014.91 1015.36 1015.81 1016.24 1016.62 1016.96 1017.25 1017.50 1017.73 1017.93 1018.14 1018.35 1018.57 1018.81 1019.05 1019.28 1019.49 1019.66 1019.78 1019.84 1019.83 1019.76 1019.62 1019.45 1019.24 1019.04 1018.84 1018.68 1018.56 1018.49 1018.48 1018.53 1018.62 1018.75 1018.92 1019.10 1019.29 1019.48 1019.68 1019.88 1020.08
1014.16 1014.33 1014.57 1014.86 1015.18 1015.51 1015.83 1016.13 1016.41 1016.67 1016.92 1017.15 1017.38 1017.62 1017.87 1018.13 1018.40 1018.66 1018.92 1019.15 1019.34 1019.48 1019.56 1019.57 1019.52 1019.41 1019.25 1019.06 1018.86 1018.66 1018.49 1018.35 1018.25 1018.20 1018.20 1018.24 1018.32 1018.44 1018.58 1018.74 1018.92 1019.11 1019.31 1019.52
1014.65 1014.69 1014.79 1014.92 1015.10 1015.29 1015.49 1015.70 1015.91 1016.13 1016.35 1016.57 1016.81 1017.07 1017.34 1017.62 1017.91 1018.20 1018.47 1018.71 1018.91 1019.06 1019.15 1019.18 1019.15 1019.06 1018.93 1018.77 1018.59 1018.40 1018.23 1018.07 1017.95 1017.87 1017.82 1017.82 1017.85 1017.92 1018.02 1018.15 1018.31 1018.48 1018.67 1018.88
1015.21 1015.13 1015.08 1015.07 1015.10 1015.16 1015.24 1015.35 1015.49 1015.65 1015.83 1016.03 1016.26 1016.52 1016.78 1017.07 1017.35 1017.64 1017.90 1018.14 1018.33 1018.49 1018.59 1018.64 1018.63 1018.58 1018.48 1018.35 1018.20 1018.04 1017.88 1017.72 1017.59 1017.49 1017.41 1017.36 1017.35 1017.38 1017.44 1017.53 1017.65 1017.80 1017.99 1018.20
1015.75 1015.56 1015.40 1015.27 1015.18 1015.12 1015.10 1015.12 1015.17 1015.27 1015.40 1015.56 1015.76 1015.99 1016.23 1016.48 1016.74 1017.00 1017.24 1017.45 1017.64 1017.79 1017.90 1017.96 1017.98 1017.96 1017.90 1017.82 1017.71 1017.58 1017.45 1017.31 1017.18 1017.07 1016.97 1016.89 1016.84 1016.82 1016.84 1016.89 1016.98 1017.11 1017.28 1017.48
1016.17 1015.92 1015.69 1015.48 1015.30 1015.15 1015.05 1015.00 1014.99 1015.02 1015.09 1015.20 1015.35 1015.52 1015.71 1015.92 1016.13 1016.33 1016.53 1016.71 1016.87 1017.01 1017.11 1017.19 1017.24 1017.25 1017.24 1017.20 1017.14 1017.06 1016.96 1016.85 1016.74 1016.63 1016.52 1016.42 1016.34 1016.28 1016.26 1016.27 1016.32 1016.42 1016.56 1016.74
Thickness
5658 5659 5652 5643 5636 5630 5620 5611 5601 5600 5600 5603 5606 5606 5608 5611 5614 5617 5620 5623 5625 5627 5628 5631 5634 5636 5639 5641 5644 5646 5648 5649 5650 5651 5653 5653 5653 5654 5654 5654 5654 5653 5653 5653
5659 5660 5653 5643 5639 5633 5626 5619 5612 5609 5608 5616 5616 5615 5616 5617 5620 5622 5624 5628 5630 5632 5633 5634 5635 5637 5638 5640 5642 5644 5645 5645 5647 5647 5648 5648 5648 5648 5648 5647 5646 5646 5645 5645
5649 5657 5651 5635 5641 5636 5631 5628 5622 5614 5619 5625 5623 5624 5624 5626 5627 5628 5630 5632 5634 5636 5637 5638 5639 5639 5639 5640 5642 5642 5643 5643 5643 5643 5643 5643 5643 5642 5641 5639 5639 5638 5637 5638
5651 5650 5639 5645 5657 5651 5641 5638 5636 5634 5634 5633 5632 5633 5634 5636 5635 5634 5636 5637 5638 5640 5641 5642 5642 5642 5642 5642 5642 5641 5641 5640 5640 5640 5640 5639 5638 5636 5635 5633 5632 5631 5630 5629
5649 5646 5646 5653 5659 5655 5645 5641 5647 5643 5643 5642 5642 5638 5636 5644 5644 5643 5644 5645 5645 5646 5647 5647 5646 5646 5644 5643 5642 5641 5640 5639 5639 5638 5636 5635 5633 5631 5630 5628 5626 5624 5622 5621
5657 5651 5646 5660 5671 5670 5656 5642 5655 5653 5648 5647 5643 5628 5632 5647 5650 5650 5651 5651 5651 5652 5652 5651 5650 5650 5647 5645 5643 5642 5640 5639 5638 5636 5634 5632 5629 5628 5626 5624 5621 5619 5616 5613
5664 5662 5664 5680 5681 5671 5644 5649 5664 5660 5655 5651 5644 5640 5646 5654 5655 5655 5656 5657 5657 5656 5655 5655 5655 5653 5650 5648 5646 5645 5642 5640 5637 5635 5633 5629 5627 5624 5622 5619 5616 5613 5609 5607
5666 5664 5668 5689 5681 5668 5668 5674 5671 5666 5663 5660 5657 5658 5659 5659 5658 5659 5659 5660 5661 5659 5659 5659 5659 5656 5654 5651 5650 5647 5644 5640 5637 5634 5632 5628 5625 5621 5618 5614 5611 5607 5604 5601
5684 5684 5698 5697 5695 5693 5687 5679 5675 5671 5670 5668 5665 5663 5663 5662 5661 5662 5662 5663 5663 5662 5662 5662 5662 5660 5657 5656 5654 5649 5644 5640 5636 5633 5630 5626 5623 5619 5615 5611 5607 5602 5598 5595
5697 5701 5705 5704 5704 5700 5694 5687 5683 5679 5676 5673 5669 5668 5666 5664 5663 5663 5664 5665 5665 5665 5664 5663 5664 5664 5662 5661 5658 5652 5646 5641 5637 5633 5629 5625 5621 5617 5613 5608 5604 5600 5596 5591
5701 5706 5706 5706 5706 5703 5698 5693 5688 5684 5681 5677 5674 5672 5669 5666 5666 5666 5666 5666 5667 5665 5665 5665 5666 5666 5665 5664 5660 5654 5648 5643 5639 5634 5630 5625 5620 5616 5612 5608 5603 5599 5594 5590
5707 5714 5708 5709 5711 5708 5701 5696 5692 5687 5683 5682 5679 5675 5673 5670 5670 5669 5669 5668 5668 5668 5667 5667 5668 5667 5667 5665 5662 5657 5650 5646 5641 5636 5631 5626 5622 5617 5614 5610 5607 5603 5599 5595
5732 5730 5724 5723 5717 5713 5707 5701 5697 5692 5687 5683 5682 5680 5677 5674 5673 5672 5671 5670 5670 5669 5669 5669 5668 5668 5667 5667 5664 5659 5654 5650 5645 5640 5635 5630 5625 5621 5617 5613 5610 5606 5603 5600
5740 5734 5726 5722 5718 5715 5711 5706 5701 5696 5692 5688 5684 5682 5679 5677 5675 5674 5673 5673 5673 5672 5671 5670 5669 5668 5669 5668 5665 5661 5657 5654 5649 5645 5640 5636 5631 5626 5621 5617 5613 5609 5606 5604
5738 5737 5731 5727 5721 5716 5713 5707 5700 5695 5692 5689 5687 5684 5681 5678 5676 5676 5676 5676 5675 5673 5672 5671 5670 5669 5670 5669 5667 5663 5659 5656 5653 5649 5645 5641 5636 5631 5626 5621 5616 5612 5609 5607
5735 5733 5729 5724 5719 5716 5711 5706 5701 5696 5694 5691 5688 5685 5683 5681 5679 5678 5677 5677 5675 5673 5672 5672 5671 5671 5671 5670 5668 5664 5661 5660 5656 5652 5649 5644 5640 5635 5630 5625 5620 5616 5613 5611
5728 5723 5721 5719 5718 5715 5712 5709 5704 5700 5696 5692 5690 5688 5685 5682 5680 5678 5678 5677 5676 5675 5673 5672 5671 5672 5673 5672 5669 5666 5664 5661 5660 5656 5652 5648 5644 5639 5634 5629 5625 5621 5618 5616
5738 5734 5730 5725 5721 5715 5712 5709 5706 5702 5699 5696 5693 5689 5685 5682 5679 5678 5677 5677 5675 5674 5673 5673 5672 5673 5673 5672 5671 5668 5665 5663 5661 5658 5655 5652 5648 5644 5639 5634 5630 5626 5622 5620
5734 5730 5726 5724 5721 5716 5712 5708 5706 5704 5701 5698 5693 5689 5686 5684 5681 5679 5678 5676 5674 5672 5673 5673 5674 5673 5672 5671 5670 5668 5667 5665 5663 5661 5658 5656 5652 5648 5644 5639 5635 5632 5628 5625
5729 5727 5724 5721 5719 5715 5711 5709 5706 5703 5700 5697 5693 5688 5685 5683 5682 5679 5677 5675 5674 5674 5674 5674 5673 5672 5671 5670 5670 5668 5667 5667 5665 5663 5661 5658 5655 5652 5648 5645 5641 5638 5634 5630
5722 5721 5719 5717 5715 5713 5711 5708 5704 5700 5698 5695 5691 5687 5685 5683 5681 5678 5675 5673 5675 5676 5674 5674 5672 5671 5670 5670 5669 5668 5668 5667 5667 5665 5663 5661 5658 5656 5653 5650 5647 5643 5640 5637
5712 5712 5713 5712 5710 5707 5707 5705 5702 5699 5695 5691 5689 5686 5683 5680 5678 5676 5675 5674 5676 5676 5673 5672 5671 5671 5670 5670 5668 5668 5668 5668 5668 5667 5665 5664 5661 5659 5657 5654 5651 5648 5645 5642
5697 5699 5701 5702 5702 5701 5700 5698 5697 5695 5691 5688 5686 5683 5680 5678 5676 5673 5671 5674 5674 5674 5672 5671 5671 5671 5671 5669 5668 5667 5668 5668 5668 5668 5667 5666 5665 5663 5661 5659 5656 5653 5650 5647
5681 5684 5687 5689 5690 5690 5688 5689 5689 5689 5688 5686 5684 5682 5678 5674 5672 5672 5673 5674 5673 5672 5670 5669 5670 5670 5670 5668 5667 5667 5667 5668 5668 5669 5668 5667 5666 5665 5663 5661 5659 5656 5654 5651
5663 5666 5669 5671 5673 5675 5677 5679 5679 5679 5678 5677 5676 5675 5675 5673 5671 5671 5669 5668 5669 5668 5666 5666 5667 5667 5666 5665 5665 5665 5666 5667 5668 5668 5668 5667 5666 5664 5663 5662 5660 5658 5656 5654
5643 5646 5649 5653 5656 5659 5662 5664 5665 5666 5666 5666 5666 5667 5666 5666 5666 5665 5664 5663 5663 5663 5661 5660 5661 5662 5661 5662 5662 5663 5664 5665 5666 5666 5666 5666 5665 5664 5662 5661 5660 5659 5657 5655
5622 5626 5630 5635 5639 5643 5646 5648 5651 5653 5655 5656 5657 5658 5658 5658 5657 5657 5656 5655 5655 5655 5655 5655 5655 5655 5656 5656 5658 5659 5660 5661 5662 5663 5663 5663 5663 5662 5661 5660 5659 5658 5656 5655